Location: Gorze? G�rny
(49.8500°N, 19.5000°E)
Time: 04:53:55
(UTC+00:00)

Cosmos 1766 - Pass Details

Date: 13 May 2021
Orbit: 520 x 544 km, 82.5° (Epoch: 20 June)

Event Time Altitude Azimuth Distance (km) Brightness Sun altitude
Rises 22:25:27 0° 355° (N) 2,708 8.4 -21.5°
Reaches altitude 10° 22:27:44 10° 4° (N) 1,808 7.1 -21.5°
Maximum altitude 22:31:28 39° 74° (ENE) 816 4.2 -21.5°
Enters shadow 22:32:07 36° 98° (E) 859 4.1 -21.5°
